OneWeb SL0514

operational
NORAD ID: 54132 Int'l Des: 2022-138 Owner: ONEWEBN Country: UK Constellation: oneweb
LEOCIRCULARPOLARONEWEB_TYPE

About OneWeb SL0514

Description loading...

Live Position

Loading 3D Globe...

Upcoming Passes

Altitude History

Altitude vs Time

uPlot chart will show altitude changes over time

Two-Line Element Set

1 54132U 22138V 25352.95597898 -.00000046 00000-0 -14746-3 0 9995
2 54132 87.9206 340.8225 0001753 88.7956 271.3378 13.19724245153055
Epoch: Dec 18, 2025 • Age: 16 hours

Current Status

Altitude 1193.8 km
Velocity 7.26 km/s
Sub-Earth Point -20.05°S, 23.17°E
Launch Date Oct 22, 2022
Age 3.1 years
Type internet

Technical Details

Classification Payload
Mass 148.00 kg
Dry Mass 140.00 kg
Total Mass 148.00 kg
Length 1.30 m
Diameter 1.00 m
Span 5.00 m
Shape Trapezoid+2 pan
Manufacturer ONEWUS
Bus Type ARROW
Phase Status In Orbit
Owner/State ONEWEBN/UK

Large Constellations

Loading constellations...